CLEMENTINE

Satellite information

Favourite Embed

Satellite Type and Status

PAYLOADIN ORBIT

Key statistics

Satellite CLEMENTINE at a glance.

Uptime

9508

Days in orbit

Revolutions

≈ 15.3

Per day

Orbit

SSO

Sun Synchronous Orbit

Inclination

98.2

Latest

Satellite identification and parameters

Extended collection of information and parameters for CLEMENTINE.

Object identification

Identified? True

Debris? False

Object name: CLEMENTINE

International designator: 1999-064B

Object number (NORAD): 25978

Object ID (CCSDS): 25978

Country: FRANCE (FR)

Current information (Y/N): Y

RCS size: MEDIUM

Orbital parameters

Period: 94.041 minutes

Inclination: 98.1637 deg

SMA: 6850.244 km

Apoapsis: 474.52 km

Periapsis: 469.698 km

RAAN: 57.3 deg

Eccentricy: 0.00035191

Argument of periapsis: 81.0836 deg

Mean anomaly: 279.0801 deg

Mean motion: 15.31241549 rev/day

Mean motion (dot): 0.00021733 rev/day2

B* drag term: 0.00072169823 1/REarth

Two-line elements (TLE)

Creation date: Dec. 14, 2025, 3:07 a.m.

Reference frame: TEME

Reference center: EARTH

Epoch: Dec. 13, 2025, 4:39 p.m. UTC

TLE line 0: 0 CLEMENTINE

TLE line 1: 1 25978U 99064B 25347.69405062 .00021733 00000-0 72170-3 0 9998

TLE line 2: 2 25978 98.1637 57.3000 0003519 81.0836 279.0801 15.31241549680080

Live tracking on map

Real-time ground track for satellite CLEMENTINE.

In-orbit conjunctions

A list of the most updated potential collisions computed for object CLEMENTINE.

Target Orbit TCA Probability of collision Miss distance Type
SL-8 DEB LEO 2025-02-10 20:38:51 0.0002964948 145.0 (m) DEBRIS

Associated space launch

The Helios program is Europe's military optical reconnaissance system consisting of both a space and a ground segment, which commenced service in 1995, jointly funded by the French, Italian and Spanish governments. The Helios I optical observation satellites, launched in July 1995 and December 1999 respectively, can acquire high resolution images of any point on the globe, with daily revisit capability. Helios-1B had suffered a breakdown of its power supply system in October 2004 and could no longer perform any work after operating for just under its 5-year nominal life expectancy.

CLEMENTINE was lifted into orbit during the mission ‘Ariane 40 | Helios 1B’, on board a Ariane 40 space rocket.

The launch took place on Dec. 3, 1999, 4:22 p.m. from Ariane Launch Area 2.

For more information about the launch, click the button.

Launch to space Ariane 40 | Helios 1B
Ariane 40 | Helios 1B

Agency: N/A

Status: Launch Successful

Launch date: Dec. 3, 1999, 4:22 p.m. UTC

Rocket: Ariane 40

Launch pad: Ariane Launch Area 2

Location: Guiana Space Centre, French Guiana

...

Latest news about this satellite

There are no fresh news available about this satellite. Check back as we update our databases every day.


Newsletter sign-up

Weekly statistics, charts and insights to help you stay on top of the space industry.